Regional Weather Roundup
Issued by NWS Charleston, SC

Current Version | Previous Version | Graphics & Text | Print | Product List | Glossary On
Versions: 1 2 3 4 5 6 7 8 9 10 11 12 13 14 15 16 17 18 19 20 21 22 23 24 25 26 27 28 29 30 31 32 33 34 35 36 37 38 39 40 41 42 43 44 45 46 47 48 49 50
000
ASUS42 KCHS 282328
RWRCHS

REGIONAL WEATHER ROUNDUP
NATIONAL WEATHER SERVICE CHARLESTON SC
700 PM EDT THU APR 28 2016

NOTE: "FAIR" INDICATES FEW OR NO CLOUDS BELOW 12,000 FEET WITH NO
SIGNIFICANT WEATHER AND/OR OBSTRUCTIONS TO VISIBILITY.

NOT ALL STATIONS ARE QUALITY CONTROLLED. USE DATA WITH CAUTION...
ESPECIALLY DEWPOINT OBSERVATIONS.

SCZ027-030-031-034>040-042>050-290000-
...SOUTHEAST SOUTH CAROLINA...

CITY           SKY/WX    TMP DP  RH WIND       PRES   REMARKS
N CHARLESTON   PTSUNNY   73  67  81 S8        29.92S
WATERFRONT PRK   N/A     74  68  81 CALM      29.91F
MOUNT PLEASANT FAIR      73  70  88 S7        29.92F
JOHNS ISLAND   FAIR      73  70  88 S7        29.93S
PINOPOLIS        N/A     77  68  73 S5        29.82S
MONCKS CORNER  FAIR      72  63  73 S5        29.90F
SUMMERVILLE    FAIR      72  68  88 CALM      29.92S
BEAUFORT MCAS  CLOUDY    80  70  71 CALM      29.91F
BEAUFORT ARPT  FAIR      77  68  73 S6        29.92S
HILTON HEAD IS PTSUNNY   79  70  73 S10       29.94S
WALTERBORO     CLOUDY    81  70  69 SE6       29.91F
ALLENDALE      FAIR      81  68  65 VRB6      29.89F

...SOUTHERN MIDLANDS AND PEE DEE...

CITY           SKY/WX    TMP DP  RH WIND       PRES   REMARKS
GEORGETOWN     FAIR      68  66  94 SW6       29.93S
KINGSTREE      MOCLDY    77  63  61 S10G22    29.89R
ORANGEBURG     SUNNY     84  64  50 SW15      29.88S
BARNWELL       FAIR      81  72  74 SW10      29.90S
AIKEN          FAIR      81  64  57 SW10G17   29.92S
MANNING        NOT AVBL
COLUMBIA       MOSUNNY   85  64  49 SW10      29.85R
SUMTER         SUNNY     85  65  52 SW13      29.84R
FLORENCE       SUNNY     83  67  58 S9        29.85S
MYRTLE BEACH   MOSUNNY   73  61  64 SW17      29.92R
N MYRTLE BEACH SUNNY     73  67  81 S17       29.90R

$$

GAZ063-065-086>088-099>101-113>116-118-119-134>141-150-290000-
...SOUTHEAST GEORGIA...

CITY           SKY/WX    TMP DP  RH WIND       PRES   REMARKS
SAVANNAH ARPT  CLOUDY    81  67  62 SW8       29.93S
HUNTER AAF     PTSUNNY   81  70  68 SW6       29.91F
FORT STEWART   PTSUNNY   78  68  71 CALM      29.91F
STATESBORO     PTSUNNY   78  72  82 S3        29.93F
SYLVANIA       CLOUDY    78  69  73 SW5       29.93S
CLAXTON        FAIR      76  71  83 CALM      29.94F

...CSRA...CENTRAL AND FAR SOUTHEAST GEORGIA...

CITY           SKY/WX    TMP DP  RH WIND       PRES   REMARKS
THOMSON        SUNNY     84  69  60 SW7       29.94S
AUGUSTA-BUSH   SUNNY     81  69  67 SW13      29.88R
AUGUSTA-DANIEL MOSUNNY   86  64  47 VRB5      29.89S
SWAINSBORO     FAIR      77  70  78 W6        29.94S
VIDALIA        MOSUNNY   75  72  88 SW5       29.95F
EASTMAN        FAIR      78  70  75 CALM      29.98S
HAZLEHURST     FAIR      82  68  63 CALM      29.94F
ALMA           CLOUDY    81  71  71 S6        29.96R
WAYCROSS       MOSUNNY   78  71  79 SW6       29.96S
JESUP          FAIR      81  72  74 SW3       29.95S
BAXLEY         FAIR      81  72  74 SW3       29.95F
BRUNSWICK      CLOUDY    82  70  65 W6        29.96F
SAINT SIMONS   CLOUDY    75  70  84 SW5       29.95F

$$

SCZ027-028-034-036>038-045-046-048>050-GAZ119-141-290000-
...LAKE AND SUPPLEMENTAL COASTAL OBSERVATIONS...

STATION/POSITION TIME  TEMP    WIND        PRES    WAVE   SWELL
                       AIR SEA DIR/SP/G            HT/PER HT/PER/DIR
                 (UTC) (F)     (DEG/KT/KT) (MB)    (FT/S) (FT/S/D)
WINYAH BAY       2245   73     230/ 12     1012.0S
LAKE MURRAY      2200   83     250/  9/ 13 1010.5S
ACE BASIN NERRS  2245   76        CALM     1013.0S
FORT PULASKI     2300   76 72              1013.9F
SAPELO ISLAND    2300   81     230/  3     1014.0S

$$

ANZ835-935-AMZ111-154-330-350-352-354-370-450-454-472-290000-
...C-MAN AND BUOY OBSERVATIONS...

STATION/POSITION TIME  TEMP    WIND        PRES    WAVE   SWELL
                       AIR SEA DIR/SP/G            HT/PER HT/PER/DIR
                 (UTC) (F)     (DEG/KT/KT) (MB)    (FT/S) (FT/S/D)
BUOY 41004       2250   72 71  190/  8/ 12 1013.6R   3/ 5   2/ 5
BUOY 41008       NOT AVBL
FOLLY BEACH CMAN 2300   72     180/  6/  7 1013.7S
CAPERS NEARSHORE 2208   72 70  250/ 10/ 14 1013.7R
FRIPP NEARSHORE  2308   73 72  200/ 12/ 16 1012.8F


STATION/POSITION TIME  TEMP    WIND        PRES    WAVE   SWELL
                       AIR SEA DIR/SP/G            HT/PER HT/PER/DIR
                 (UTC) (F)     (DEG/KT/KT) (MB)    (FT/S) (FT/S/D)
5E ST. MARYS GA  2221      72                N/A     2/ 4
FRYING PAN BUOY  2300   72 70  200/ 12/ 14 1012.9R
BUOY 41025       2250   74 72  210/ 17/ 21 1011.7F   4/ 4   2/110/11
CAPE LOOKOUT NC  2300   70     210/ 11/ 14 1011.8F
BUOY 41002       2250   72 71  170/  8/ 10 1015.9F   2/11   2/110/11
BUOY 41010       2220   76 77  200/  6/  6 1016.1R
ST AUGUSTINE FL  2300   73 72  170/  9/ 10 1015.2R


$$



USA.gov is the U.S. government's official web portal to all federal, state and local government web resources and services.